CW0214 Weather Reports


time (UTC)temp
C
wind
direction
speed
KPH
gust
KPH
rain 1hr
cm
rain 24hr
cm
rain mn
cm
humidity
%
barometer
mb
20180218181903 15 94 0.0 0.0 0.00 0.00 0.00 34 1019.4
20180218181403 15 94 0.0 0.0 0.00 0.00 0.00 33 1019.3
20180218180903 15 94 0.0 0.0 0.00 0.00 0.00 33 1019.3
20180218180402 16 94 0.0 0.0 0.00 0.00 0.00 32 1019.2
20180218175903 16 94 0.0 0.0 0.00 0.00 0.00 33 1019.2
20180218175402 16 94 0.0 0.0 0.00 0.00 0.00 32 1019.2
20180218174903 16 94 0.0 0.0 0.00 0.00 0.00 32 1019.2
20180218174403 16 94 0.0 8.0 0.00 0.00 0.00 31 1019.2
20180218173902 16 103 0.0 3.2 0.00 0.00 0.00 31 1019.2
20180218173403 16 103 1.6 9.7 0.00 0.00 0.00 31 1019.2
20180218172903 16 103 4.8 9.7 0.00 0.00 0.00 30 1019.3
20180218172403 16 74 0.0 4.8 0.00 0.00 0.00 31 1019.2
20180218171903 16 83 6.4 12.9 0.00 0.00 0.00 30 1019.2
20180218171403 16 97 4.8 11.3 0.00 0.00 0.00 31 1019.2
20180218170903 16 117 0.0 9.7 0.00 0.00 0.00 31 1019.2
20180218170403 16 130 4.8 11.3 0.00 0.00 0.00 30 1019.2
20180218165903 16 120 9.7 16.1 0.00 0.00 0.00 29 1019.2
20180218165403 16 105 4.8 16.1 0.00 0.00 0.00 29 1019.3
20180218164903 17 102 4.8 11.3 0.00 0.00 0.00 29 1019.4
20180218164403 17 123 6.4 12.9 0.00 0.00 0.00 29 1019.4
20180218163903 17 74 3.2 14.5 0.00 0.00 0.00 29 1019.4
20180218163403 17 126 1.6 14.5 0.00 0.00 0.00 28 1019.4
20180218162902 16 128 1.6 12.9 0.00 0.00 0.00 28 1019.5
20180218162403 16 111 4.8 12.9 0.00 0.00 0.00 29 1019.5
20180218161903 16 125 9.7 22.5 0.00 0.00 0.00 29 1019.5
20180218161403 16 107 9.7 19.3 0.00 0.00 0.00 28 1019.6
20180218160904 16 120 9.7 20.9 0.00 0.00 0.00 28 1019.6
20180218160403 16 95 6.4 24.1 0.00 0.00 0.00 29 1019.6
20180218155903 16 115 12.9 19.3 0.00 0.00 0.00 28 1019.6
20180218155403 16 104 11.3 24.1 0.00 0.00 0.00 29 1019.6
20180218154903 16 120 16.1 24.1 0.00 0.00 0.00 28 1019.6
20180218154402 16 110 14.5 32.2 0.00 0.00 0.00 29 1019.6
20180218153903 16 113 14.5 24.1 0.00 0.00 0.00 28 1019.6
20180218153403 16 89 14.5 29.0 0.00 0.00 0.00 28 1019.6
20180218152903 17 112 9.7 19.3 0.00 0.00 0.00 30 1019.6
20180218152403 17 83 4.8 12.9 0.00 0.00 0.00 31 1019.6
20180218151903 17 111 3.2 12.9 0.00 0.00 0.00 30 1019.6
20180218151404 17 3 6.4 16.1 0.00 0.00 0.00 31 1019.7
20180218150903 17 8 3.2 12.9 0.00 0.00 0.00 30 1019.8
20180218150403 17 53 3.2 11.3 0.00 0.00 0.00 31 1019.8
20180218145903 17 84 4.8 19.3 0.00 0.00 0.00 30 1019.8
20180218145403 16 88 1.6 9.7 0.00 0.00 0.00 31 1020.0
20180218144903 16 111 6.4 19.3 0.00 0.00 0.00 31 1020.0
20180218144403 16 73 4.8 19.3 0.00 0.00 0.00 31 1020.0
20180218143903 16 114 9.7 24.1 0.00 0.00 0.00 31 1020.1
20180218143402 16 123 11.3 19.3 0.00 0.00 0.00 31 1020.2
20180218142903 16 25 11.3 22.5 0.00 0.00 0.00 31 1020.2
20180218142403 16 38 4.8 22.5 0.00 0.00 0.00 32 1020.2
20180218141903 16 126 11.3 25.7 0.00 0.00 0.00 31 1020.2
20180218141404 16 110 14.5 25.7 0.00 0.00 0.00 31 1020.3
20180218140903 16 130 12.9 22.5 0.00 0.00 0.00 31 1020.6
20180218140403 16 101 11.3 22.5 0.00 0.00 0.00 31 1020.6
20180218135903 16 75 4.8 20.9 0.00 0.00 0.00 31 1020.6
20180218135403 16 31 4.8 16.1 0.00 0.00 0.00 32 1020.7
20180218134903 16 96 11.3 19.3 0.00 0.00 0.00 31 1020.7
20180218134403 16 173 1.6 20.9 0.00 0.00 0.00 33 1020.7
20180218133902 15 129 11.3 25.7 0.00 0.00 0.00 33 1020.8
20180218133402 15 96 11.3 22.5 0.00 0.00 0.00 32 1021.0
20180218132902 15 115 16.1 24.1 0.00 0.00 0.00 32 1021.1
20180218132403 16 113 4.8 20.9 0.00 0.00 0.00 33 1021.1
20180218131903 16 54 8.0 24.1 0.00 0.00 0.00 32 1021.1
20180218131406 16 78 8.0 19.3 0.00 0.00 0.00 31 1021.2
20180218130903 16 20 6.4 22.5 0.00 0.00 0.00 31 1021.2
20180218130403 16 78 9.7 20.9 0.00 0.00 0.00 30 1021.2
20180218125904 16 56 8.0 20.9 0.00 0.00 0.00 29 1021.3
20180218125402 16 98 8.0 22.5 0.00 0.00 0.00 29 1021.2
20180218124904 16 95 8.0 19.3 0.00 0.00 0.00 30 1021.4
20180218124403 16 140 1.6 12.9 0.00 0.00 0.00 32 1021.5
20180218123903 16 80 1.6 19.3 0.00 0.00 0.00 32 1021.6
20180218123403 15 122 11.3 22.5 0.00 0.00 0.00 33 1021.7
20180218122904 15 96 11.3 32.2 0.00 0.00 0.00 34 1021.7
20180218122404 15 118 16.1 32.2 0.00 0.00 0.00 34 1021.8
20180218121903 15 74 14.5 22.5 0.00 0.00 0.00 32 1021.7
20180218121404 15 118 8.0 19.3 0.00 0.00 0.00 33 1021.8
20180218120904 15 108 6.4 16.1 0.00 0.00 0.00 32 1021.8
20180218120403 15 67 6.4 16.1 0.00 0.00 0.00 31 1021.9
20180218115903 15 82 8.0 20.9 0.00 0.00 0.00 33 1022.2
20180218115403 15 129 8.0 22.5 0.00 0.00 0.00 33 1022.2
20180218114902 15 62 8.0 19.3 0.00 0.00 0.00 32 1022.3
20180218114403 15 51 3.2 20.9 0.00 0.00 0.00 33 1022.3
20180218113903 15 50 9.7 19.3 0.00 0.00 0.00 33 1022.3
20180218113403 15 41 4.8 14.5 0.00 0.00 0.00 33 1022.3
20180218112903 15 39 8.0 16.1 0.00 0.00 0.00 33 1022.3
20180218112403 15 345 6.4 16.1 0.00 0.00 0.00 34 1022.3
20180218111902 14 99 8.0 19.3 0.00 0.00 0.00 34 1022.3
20180218111404 14 33 6.4 16.1 0.00 0.00 0.00 36 1022.3
20180218110903 14 52 11.3 22.5 0.00 0.00 0.00 35 1022.3
20180218110403 13 71 11.3 20.9 0.00 0.00 0.00 36 1022.5
20180218105904 13 49 9.7 19.3 0.00 0.00 0.00 39 1022.4
20180218105403 14 50 12.9 19.3 0.00 0.00 0.00 39 1022.5
20180218104903 13 95 6.4 19.3 0.00 0.00 0.00 39 1022.4
20180218104403 13 184 4.8 19.3 0.00 0.00 0.00 41 1022.4
20180218103903 13 152 3.2 19.3 0.00 0.00 0.00 41 1022.5
20180218103403 13 81 6.4 24.1 0.00 0.00 0.00 42 1022.5
20180218102903 13 51 12.9 24.1 0.00 0.00 0.00 42 1022.5
20180218102403 13 39 4.8 20.9 0.00 0.00 0.00 41 1022.4
20180218101903 13 19 1.6 8.0 0.00 0.00 0.00 42 1022.5
20180218101404 13 33 8.0 16.1 0.00 0.00 0.00 43 1022.5
20180218100903 13 185 0.0 11.3 0.00 0.00 0.00 43 1022.6
20180218100403 13 62 4.8 14.5 0.00 0.00 0.00 43 1022.5
20180218095904 12 17 4.8 20.9 0.00 0.00 0.00 44 1022.5
20180218095403 12 109 3.2 14.5 0.00 0.00 0.00 46 1022.6
20180218094903 12 31 8.0 16.1 0.00 0.00 0.00 46 1022.6
20180218094403 12 91 6.4 16.1 0.00 0.00 0.00 47 1022.6
20180218093903 11 53 8.0 19.3 0.00 0.00 0.00 46 1022.6
20180218093402 11 44 8.0 20.9 0.00 0.00 0.00 46 1022.6
20180218092904 11 54 6.4 16.1 0.00 0.00 0.00 47 1022.5
20180218092403 11 54 4.8 14.5 0.00 0.00 0.00 48 1022.5
20180218091903 11 39 3.2 12.9 0.00 0.00 0.00 49 1022.4
20180218091403 11 78 3.2 12.9 0.00 0.00 0.00 49 1022.4
20180218090904 11 57 4.8 16.1 0.00 0.00 0.00 48 1022.3
20180218090403 11 74 3.2 11.3 0.00 0.00 0.00 49 1022.4
20180218085903 11 35 3.2 12.9 0.00 0.00 0.00 49 1022.4
20180218085402 10 48 1.6 9.7 0.00 0.00 0.00 50 1022.3
20180218084903 10 46 1.6 9.7 0.00 0.00 0.00 49 1022.3
20180218084403 10 5 1.6 9.7 0.00 0.00 0.00 49 1022.3
20180218083903 10 23 1.6 12.9 0.00 0.00 0.00 50 1022.3
20180218083403 10 37 4.8 14.5 0.00 0.00 0.00 49 1022.3
20180218082903 10 26 3.2 14.5 0.00 0.00 0.00 49 1022.3
20180218082403 10 31 3.2 11.3 0.00 0.00 0.00 49 1022.3
20180218081903 10 17 1.6 11.3 0.00 0.00 0.00 50 1022.3
20180218081404 10 43 1.6 11.3 0.00 0.00 0.00 51 1022.3
20180218080903 10 26 3.2 9.7 0.00 0.00 0.00 52 1022.3
20180218080403 9 30 4.8 11.3 0.00 0.00 0.00 53 1022.2
20180218075903 9 59 4.8 11.3 0.00 0.00 0.00 55 1022.1
20180218075403 9 45 4.8 14.5 0.00 0.00 0.00 55 1022.0
20180218074904 9 28 4.8 14.5 0.00 0.00 0.00 56 1022.0
20180218074403 9 21 3.2 9.7 0.00 0.00 0.00 55 1022.0
20180218073903 9 55 4.8 9.7 0.00 0.00 0.00 55 1021.9
20180218073404 9 27 1.6 9.7 0.00 0.00 0.00 55 1021.8
20180218072903 9 36 8.0 11.3 0.00 0.00 0.00 55 1021.8
20180218072402 9 18 6.4 16.1 0.00 0.00 0.00 55 1021.8
20180218071903 9 19 4.8 12.9 0.00 0.00 0.00 55 1021.8
20180218071404 9 6 1.6 11.3 0.00 0.00 0.00 55 1021.8
20180218070904 9 52 1.6 11.3 0.00 0.00 0.00 56 1021.8
20180218070403 9 44 1.6 3.2 0.00 0.00 0.00 57 1021.7
20180218065903 9 44 0.0 0.0 0.00 0.00 0.00 58 1021.7
20180218065403 10 44 0.0 8.0 0.00 0.00 0.00 57 1021.6
20180218064902 10 47 1.6 9.7 0.00 0.00 0.00 56 1021.5
20180218064403 10 83 0.0 8.0 0.00 0.00 0.00 55 1021.6
20180218063903 10 52 3.2 8.0 0.00 0.00 0.00 56 1021.5
20180218063403 9 80 3.2 9.7 0.00 0.00 0.00 57 1021.6
20180218062903 9 31 1.6 4.8 0.00 0.00 0.00 59 1021.5
20180218062403 9 65 1.6 4.8 0.00 0.00 0.00 61 1021.6
20180218061903 9 355 0.0 0.0 0.00 0.00 0.00 61 1021.6
20180218061403 9 355 0.0 3.2 0.00 0.00 0.00 61 1021.7
20180218060903 9 355 0.0 3.2 0.00 0.00 0.00 61 1021.8
20180218060403 8 355 0.0 3.2 0.00 0.00 0.00 62 1021.7
20180218055903 8 355 0.0 0.0 0.00 0.00 0.00 66 1021.7
20180218055403 7 355 0.0 0.0 0.00 0.00 0.00 68 1021.7
20180218054903 8 355 0.0 0.0 0.00 0.00 0.00 65 1021.7
20180218054403 9 355 1.6 3.2 0.00 0.00 0.00 61 1021.5
20180218053903 8 355 0.0 0.0 0.00 0.00 0.00 66 1021.5
20180218053403 8 355 0.0 0.0 0.00 0.00 0.00 64 1021.6
20180218052902 8 355 0.0 3.2 0.00 0.00 0.00 65 1021.6
20180218052403 8 355 0.0 4.8 0.00 0.00 0.00 65 1021.6
20180218051903 8 355 0.0 0.0 0.00 0.00 0.00 65 1021.6
20180218051404 8 355 1.6 8.0 0.00 0.00 0.00 66 1021.6
20180218050904 8 7 3.2 8.0 0.00 0.00 0.00 66 1021.7
20180218050403 8 9 0.0 1.6 0.00 0.00 0.00 66 1021.6
20180218045903 8 9 3.2 8.0 0.00 0.00 0.00 66 1021.7
20180218045403 8 3 3.2 8.0 0.00 0.00 0.00 67 1021.7
20180218044903 8 350 3.2 8.0 0.00 0.00 0.00 68 1021.7
20180218044403 8 12 1.6 9.7 0.00 0.00 0.00 69 1021.7
20180218043903 8 358 3.2 9.7 0.00 0.00 0.00 69 1021.7
20180218043402 8 0 6.4 9.7 0.00 0.00 0.00 69 1021.7
20180218042904 8 2 4.8 8.0 0.00 0.00 0.00 68 1021.7
20180218042403 8 0 0.0 0.0 0.00 0.00 0.00 68 1021.7
20180218041903 8 0 0.0 0.0 0.00 0.00 0.00 68 1021.7
20180218041404 8 17 0.0 3.2 0.00 0.00 0.00 68 1021.7
20180218040903 8 37 0.0 1.6 0.00 0.00 0.00 69 1021.7
20180218040403 8 29 0.0 1.6 0.00 0.00 0.00 70 1021.7
20180218035903 8 32 0.0 4.8 0.00 0.00 0.00 69 1021.7
20180218035405 8 9 0.0 0.0 0.00 0.00 0.00 70 1021.7
20180218034904 8 9 0.0 0.0 0.00 0.00 0.00 70 1021.7
20180218034403 8 9 0.0 1.6 0.00 0.00 0.00 72 1021.7
20180218033903 8 9 0.0 0.0 0.00 0.00 0.00 75 1021.8
20180218033403 6 9 0.0 0.0 0.00 0.00 0.00 84 1021.8
20180218032903 6 9 0.0 0.0 0.00 0.00 0.00 87 1022.0
20180218032403 7 9 0.0 0.0 0.00 0.00 0.00 83 1022.0
20180218031903 8 9 0.0 0.0 0.00 0.00 0.00 78 1022.0
20180218031404 8 9 0.0 3.2 0.00 0.00 0.00 77 1022.1
20180218030903 8 9 3.2 4.8 0.00 0.00 0.00 77 1022.1
20180218030404 8 9 4.8 8.0 0.00 0.00 0.00 78 1022.2
20180218025903 7 22 0.0 0.0 0.00 0.00 0.00 82 1022.2
20180218025403 8 22 0.0 0.0 0.00 0.00 0.00 76 1022.2
20180218024903 9 22 0.0 1.6 0.00 0.00 0.00 71 1022.2
20180218024403 8 22 0.0 0.0 0.00 0.00 0.00 72 1022.2
20180218023903 8 22 0.0 0.0 0.00 0.00 0.00 76 1022.3
20180218023403 7 21 0.0 0.0 0.00 0.00 0.00 83 1022.3
20180218022903 6 242 0.0 0.0 0.00 0.00 0.00 87 1022.3
20180218022403 7 242 0.0 1.6 0.00 0.00 0.00 83 1022.3
20180218021904 8 242 0.0 0.0 0.00 0.00 0.00 75 1022.2
20180218021404 7 242 0.0 0.0 0.00 0.00 0.00 81 1022.3
20180218020903 7 242 0.0 0.0 0.00 0.00 0.00 88 1022.3
20180218020403 7 242 0.0 0.0 0.00 0.00 0.00 84 1022.3
20180218015903 9 251 0.0 0.0 0.00 0.00 0.00 76 1022.2
20180218015403 9 343 0.0 3.2 0.00 0.00 0.00 76 1022.2
20180218014903 9 342 0.0 0.0 0.00 0.00 0.00 78 1022.2
20180218014404 9 342 0.0 3.2 0.00 0.00 0.00 80 1022.3
20180218013903 8 341 0.0 3.2 0.00 0.00 0.00 81 1022.3
20180218013403 8 339 0.0 0.0 0.00 0.00 0.00 86 1022.3
20180218012903 8 337 0.0 0.0 0.00 0.00 0.00 86 1022.2
20180218012403 8 337 0.0 0.0 0.00 0.00 0.00 85 1022.2
20180218011903 8 337 0.0 0.0 0.00 0.00 0.00 86 1022.2
20180218011403 8 337 0.0 0.0 0.00 0.00 0.00 87 1022.3
20180218010903 8 337 0.0 0.0 0.00 0.00 0.00 86 1022.4
20180218010403 9 337 1.6 3.2 0.00 0.00 0.00 85 1022.5
20180218005903 9 319 0.0 3.2 0.00 0.00 0.00 85 1022.6
20180218005403 9 322 4.8 9.7 0.00 0.00 0.00 85 1022.6
20180218004905 9 296 3.2 4.8 0.00 0.00 0.00 86 1022.6
20180218004403 9 295 0.0 1.6 0.00 0.00 0.00 85 1022.6
20180218003903 9 305 4.8 9.7 0.00 0.00 0.00 85 1022.6
20180218003403 9 314 4.8 9.7 0.00 0.00 0.00 86 1022.7
20180218002903 9 305 4.8 9.7 0.00 0.00 0.00 86 1022.6
20180218002403 9 299 6.4 11.3 0.00 0.00 0.00 86 1022.7
20180218001904 9 301 8.0 12.9 0.00 0.00 0.00 86 1022.7
20180218001403 9 302 6.4 11.3 0.00 0.00 0.00 86 1022.7
20180218000903 10 296 0.0 0.0 0.00 0.00 0.00 85 1022.7
20180218000403 10 296 0.0 0.0 0.00 0.00 0.00 85 1022.7
20180217235903 10 296 0.0 4.8 0.00 0.00 0.00 84 1022.7
20180217235403 10 317 0.0 0.0 0.00 0.00 0.00 84 1022.7
20180217234904 10 318 3.2 9.7 0.00 0.00 0.00 84 1022.7
20180217234404 10 319 4.8 8.0 0.00 0.00 0.00 83 1022.8
20180217233903 10 308 3.2 9.7 0.00 0.00 0.00 84 1022.8
20180217233404 10 329 3.2 11.3 0.00 0.00 0.00 84 1022.7
20180217232903 10 337 3.2 11.3 0.00 0.00 0.00 84 1022.7
20180217232403 10 319 3.2 9.7 0.00 0.00 0.00 84 1022.7
20180217231903 10 317 3.2 8.0 0.00 0.00 0.00 83 1022.7
20180217231406 10 321 4.8 9.7 0.00 0.00 0.00 83 1022.7
20180217230903 10 330 4.8 9.7 0.00 0.00 0.00 83 1022.7
20180217230403 10 281 3.2 4.8 0.00 0.00 0.00 82 1022.8
20180217225903 10 281 0.0 0.0 0.00 0.00 0.00 82 1022.8
20180217225403 11 281 0.0 0.0 0.00 0.00 0.00 82 1022.7
20180217224903 11 281 0.0 0.0 0.00 0.00 0.00 82 1022.7
20180217224404 11 280 1.6 8.0 0.00 0.00 0.00 82 1022.7
20180217223904 11 275 1.6 8.0 0.00 0.00 0.00 82 1022.7
20180217223403 11 275 0.0 4.8 0.00 0.00 0.00 82 1022.7
20180217222904 11 275 1.6 4.8 0.00 0.00 0.00 82 1022.7
20180217222403 11 275 0.0 0.0 0.00 0.00 0.00 82 1022.7
20180217221903 11 275 0.0 0.0 0.00 0.00 0.00 81 1022.6
20180217221404 11 275 0.0 8.0 0.00 0.00 0.00 81 1022.6
20180217220903 11 274 1.6 4.8 0.00 0.00 0.00 81 1022.6
20180217220403 11 274 1.6 3.2 0.00 0.00 0.00 81 1022.6
20180217215904 11 273 0.0 0.0 0.00 0.00 0.00 81 1022.5
20180217215403 11 274 0.0 0.0 0.00 0.00 0.00 81 1022.4
20180217214904 11 274 0.0 4.8 0.00 0.00 0.00 81 1022.4
20180217214403 11 274 0.0 0.0 0.00 0.00 0.00 81 1022.4
20180217213903 11 274 0.0 0.0 0.00 0.00 0.00 80 1022.5
20180217213403 11 274 0.0 0.0 0.00 0.00 0.00 80 1022.6
20180217212903 11 274 0.0 8.0 0.00 0.00 0.00 80 1022.6
20180217212404 11 270 0.0 8.0 0.00 0.00 0.00 80 1022.6
20180217211903 11 268 0.0 1.6 0.00 0.00 0.00 80 1022.6
20180217211405 11 268 0.0 0.0 0.00 0.00 0.00 80 1022.5
20180217210903 11 268 0.0 3.2 0.00 0.00 0.00 80 1022.4
20180217210403 11 268 0.0 1.6 0.00 0.00 0.00 79 1022.4
20180217205904 11 268 1.6 4.8 0.00 0.00 0.00 79 1022.4
20180217205404 11 268 0.0 0.0 0.00 0.00 0.00 80 1022.4
20180217204904 11 268 0.0 1.6 0.00 0.00 0.00 80 1022.3
20180217204403 11 268 1.6 9.7 0.00 0.00 0.00 79 1022.4
20180217203903 12 271 1.6 8.0 0.00 0.00 0.00 79 1022.4
20180217203404 12 290 1.6 11.3 0.00 0.00 0.00 79 1022.4
20180217202903 12 295 1.6 11.3 0.00 0.00 0.00 79 1022.5
20180217202403 12 281 3.2 9.7 0.00 0.00 0.00 79 1022.5
20180217201903 12 275 4.8 12.9 0.00 0.00 0.00 79 1022.4
20180217201404 12 270 4.8 11.3 0.00 0.00 0.00 79 1022.4
20180217200904 12 247 1.6 14.5 0.00 0.00 0.00 79 1022.3
20180217200403 12 277 4.8 11.3 0.00 0.00 0.00 79 1022.4
20180217195904 12 268 1.6 14.5 0.00 0.00 0.00 78 1022.4
20180217195403 12 273 1.6 14.5 0.00 0.00 0.00 78 1022.4
20180217194904 12 275 4.8 11.3 0.00 0.00 0.00 78 1022.3
20180217194403 12 265 3.2 8.0 0.00 0.00 0.00 78 1022.3
20180217193903 12 295 4.8 11.3 0.00 0.00 0.00 78 1022.3
20180217193403 12 238 1.6 12.9 0.00 0.00 0.00 78 1022.3
20180217192904 12 272 1.6 14.5 0.00 0.00 0.00 78 1022.2
20180217192403 12 283 8.0 19.3 0.00 0.00 0.00 77 1022.3
20180217191903 12 295 4.8 14.5 0.00 0.00 0.00 77 1022.3
20180217191405 12 294 3.2 12.9 0.00 0.00 0.00 77 1022.3
20180217190903 13 260 3.2 14.5 0.00 0.00 0.00 77 1022.2
20180217190404 13 284 0.0 4.8 0.00 0.00 0.00 76 1022.2
20180217185903 13 271 8.0 12.9 0.00 0.00 0.00 76 1022.0
20180217185403 13 315 3.2 14.5 0.00 0.00 0.00 76 1022.0
20180217184903 13 248 3.2 11.3 0.00 0.00 0.00 76 1022.0
20180217184404 13 290 6.4 14.5 0.00 0.00 0.00 76 1022.0
20180217183903 13 288 4.8 12.9 0.00 0.00 0.00 76 1022.0
20180217183403 13 297 6.4 16.1 0.00 0.00 0.00 76 1021.9
20180217182904 14 251 4.8 14.5 0.00 0.00 0.00 76 1021.8
20180217182404 14 266 9.7 19.3 0.00 0.00 0.00 77 1021.8